www.pogodaiklimat.ru

ПОГОДА в Беатрисе, NE

  • Прогноз погоды в Беатрисе
  • Монитор погоды в Беатрисе
  • Климат в Беатрисе

АРХИВ ПОГОДЫ в Беатрисе

Время (UTC), дата Ветер
(напр.,м/с)
 
Видим.   Явления Облачность Т
(С)
Тd
(С)
f
(%)
Тe
(С)
Тes
(С)
Комфортность

P
(гПа)

Po
(гПа)
Тmin
(С)
Tmax
(С)
R
(мм)
SD
(см)
05:35 26.03   11 км    10/0 2700 м
[средняя] 
+4.6  +3.6  93  +3  +3      979.1         
05:55 26.03   11 км    10/0 2700 м
[средняя] 
+4.0  +3.2  95  +3  +3      979.1         
06:15 26.03   11 км    10/0 2700 м
[средняя] 
+4.1  +3.3  95  +3  +3      979.5         
06:35 26.03   11 км    8/0 2700 м
[средняя] 
+4.0  +3.3  95  +3  +3      979.5         
06:55 26.03   11 км    10/0 2700 м
[средняя] 
+3.9  +3.1  95  +3  +3      979.5         
07:15 26.03   11 км    10/0 2700 м
[средняя] 
+4.0  +3.3  95  +3  +3      979.1         
07:35 26.03   8 км  дымка  10/8 1500 м
[средняя] 
+3.2  +2.9  98  +2  +2      979.1         
07:55 26.03 ЮВ  11 км    10/8 1500 м
[средняя] 
+3.7  +3.3  97  +1  +1      979.1         
08:15 26.03   11 км    8/5 1500 м
[средняя] 
+4.0  +3.3  95  +3  +3      978.8         
08:35 26.03   11 км    8/0 2250 м
[средняя] 
+4.1  +3.3  95  +3  +3      978.5         
08:55 26.03   11 км    10/8 1410 м
[средняя] 
+3.9  +3.2  95  +3  +3      978.8         
09:15 26.03   11 км    10/5 1380 м
[средняя] 
+4.0  +3.2  95  +3  +3      978.5         
09:35 26.03 ЮВ  11 км    8/8 1950 м
[средняя] 
+4.0  +3.3  95  0  0      978.5         
09:55 26.03 ЮВ  8 км  дымка  10/10 1350 м  +4.2  +3.7  97  +2  +2      978.8         
10:15 26.03 ЮВ  11 км    10/10 1350 м  +4.3  +3.6  95  +2  +2      978.8         
10:35 26.03 В  8 км  дымка  10/10 1410 м  +4.5  +3.8  95  +2  +2      979.1         
10:55 26.03 В  11 км    10/10 1350 м  +4.6  +4.0  96  +2  +2      979.5  +3.2  +4.7     
11:15 26.03 В  11 км    10/10 1350 м  +4.9  +4.0  94  +3  +3      979.5         
11:35 26.03 Ю  11 км    10/10 1410 м  +5.0  +4.3  95  +2  +2      979.5         
11:55 26.03 Ю  8 км  дымка  10/10 1410 м  +5.5  +4.5  93  +2  +2      979.5         
12:15 26.03 ЮВ  11 км    10/10 1470 м  +5.8  +4.4  91  +2  +2      979.5         
12:35 26.03 ЮВ  11 км    10/10 1470 м  +6.0  +4.6  91  +2  +2      979.5         
12:55 26.03 ЮВ  11 км    10/10 1470 м  +6.5  +4.7  88  +3  +3      979.5         
13:15 26.03 Ю  16 км    10/10 1500 м  +7.0  +4.9  86  +3  +3      979.8         
13:35 26.03 Ю  16 км    10/10 1500 м  +7.7  +5.2  84  +4  +4      979.8         
13:55 26.03 Ю  16 км    10/10 1500 м  +8.2  +5.4  82  +4  +4      979.5         
14:15 26.03 Ю  16 км    10/8 1800 м
[средняя] 
+9.1  +5.6  79  +5  +5      979.5         
14:35 26.03 Ю  16 км    10/8 1950 м
[средняя] 
+9.4  +5.8  78  +6  +6      979.5         
14:55 26.03 Ю  16 км    10/5 1950 м
[средняя] 
+10.3  +6.2  76  +7  +8      979.5         
15:15 26.03 Ю  16 км    8/5 1500 м
[средняя] 
+11.6  +6.4  70  +9  +9      979.1         
15:35 26.03 Ю  7
{9} 
16 км    8/5 1500 м
[средняя] 
+12.2  +6.6  69  +9  +10      979.1         
15:55 26.03 Ю  6
{8} 
16 км    8/0 2250 м
[средняя] 
+12.8  +7.2  69  +10  +11      978.5         
16:15 26.03 Ю  16 км    8/0 2250 м
[средняя] 
+13.4  +7.3  67  +11  +13      978.5         
16:35 26.03 Ю  7
{10} 
16 км    5/0 2250 м
[средняя] 
+14.6  +7.2  61  +13  +14      978.2         
16:55 26.03 Ю  7
{10} 
16 км    ясно  +15.3  +7.2  58  +13  +15      977.9  +4.6  +15.4     
17:15 26.03 Ю  7
{11} 
16 км    ясно  +16.0  +7.7  58  +14  +17      977.5         
17:35 26.03 Ю  6
{9} 
16 км    ясно  +16.2  +8.2  59  +15  +19      977.2         
17:55 26.03 Ю  8
{10} 
16 км    ясно  +16.9  +7.6  54  +16  +17      976.9         
18:15 26.03 Ю  5
{8} 
16 км    ясно  +17.6  +7.6  52  +17  +22      976.6         
18:35 26.03 Ю  16 км    5/5 1230 м  +18.0  +7.6  51  +17  +18      976.2         
18:55 26.03 Ю  7
{9} 
16 км    5/5 1290 м  +17.9  +7.8  52  +17  +18      975.9         
19:15 26.03 Ю  16 км    8/8 1350 м  +18.4  +7.6  49  +18  +19      975.6         
19:35 26.03 Ю  6
{11} 
16 км    5/5 1410 м  +18.6  +7.2  47  +18  +20      975.6         
19:55 26.03 Ю  7
{10} 
16 км    8/8 1470 м  +19.0  +7.1  46  +19  +19      975.3         
20:15 26.03 ЮЗ  9
{11} 
16 км    5/5 1470 м  +19.5  +7.1  45  +19  +19      974.9         
20:35 26.03 Ю  7
{9} 
16 км    5/5 1800 м  +19.2  +7.3  46  +19  +20      974.9         
20:55 26.03 Ю  7
{9} 
16 км    8/8 1500 м  +19.1  +7.3  46  +19  +19      974.6         
21:15 26.03 Ю  16 км    5/5 1500 м  +18.9  +7.4  47  +19  +19      974.3         

 

Местоположение метеостанции Beatrice Municipal Airport: широта 40.3000 долгота -96.7500 высота над уровнем моря 403 м.

В архиве по умолчанию представлена погода в Беатрисе за последние 1-2 суток. Обновление информации о фактической погоде в базе происходит ежечасно! Архивные данные за месяц целиком и за предыдущие месяцы Вы можете получить, выбрав интересующий диапазон дат из раскрывающегося списка и нажав кнопку "Ввод!".

Внимание! Архив погоды МЕТАР в базе сайта хранится не более 60 дней. Нет смысла пытаться выбрать более раннюю дату.

Внимание! Время в таблицах - всемирное. Для получения местного времени необходимо прибавить поправку, которая в Беатрисе равна -6 ч.

Ветер - указаны скорость ветра в м/с и направление, откуда дует ветер: С - северный, СВ - северо-восточный, В - восточный, ЮВ - юго-восточный, Ю - южный, ЮЗ - юго-западный, З - западный, СЗ - северо-западный.
Видимость - горизонтальная дальность видимости в метрах или километрах. При видимости от 1 до 10 км при отсутствии осадков обычно наблюдается дымка, при ухудшении видимости до 1 км и менее - туман. В сухую погоду видимость может ухудшаться дымом, пылью или мглою.
Атмосферные явления - указаны явления, наблюдавшиеся в указанный момент времени.
Облачность - указаны через наклонную черту верхняя и нижняя облачность в баллах и высота нижней границы облаков в метрах. Внимание: облачность, как и прочие метеорологические величины в США измеряются автоматическими метеостанциями. Указанные значения в баллах носят условный характер и показывают процент времени, в течение которого, в среднем, лазерный луч высотомера отражался от облаков обратно.
T - Температура воздуха - температура, измеренная на высоте 2 м над землей.
Td - Температура точки росы - температура, при понижении до которой содержащийся в воздухе водяной пар достигнет насыщения.
f - Относительная влажность воздуха - влажноcть воздуха, измеренная на высоте 2 м над землей.
Te - Эффективная температура - температура, которую ощущает одетый по сезону человек в тени. Характеристика душности погоды. При расчете учитывается влияние влажности воздуха и скорости ветра на теплоощущения человека.
Tes - Эффективная температура на солнце - температура, которую ощущает человек, с поправкой на солнечный нагрев. Характеристика знойности погоды. Зависит от высоты солнца над горизонтом, облачности и скорости ветра. Ночью, в пасмурную погоду, а также при ветре 12 м/с и более поправка равна нулю.
P - Атмосферное давление - приведенное к уровню моря атмосферное давление.
Po - Атмосферное давление - измеренное на уровне метеостанции атмосферное давление.
Tmin - Минимальная температура - минимум температуры воздуха на высоте 2 м над землей.
Tmax - Максимальная температура - максимум температуры воздуха на высоте 2 м над землей.
R - Количество осадков - Количество выпавших осадков за 3 или 6 часов, мм.
SD - Снежный покров - Высота снежного покрова, см.